Brno, Czech Republic

6:23 AM CET on February 20, 2017 (GMT +0100)
Turany

Weather History for LKTB - April, 2014

Change the Weather History Date:

Wednesday, April 30, 2014

  Actual Average Record
Temperature  
Mean Temperature 60 °F -  
Max Temperature 71 °F 67 °F - ()
Min Temperature 48 °F 47 °F - ()
Degree Days  
Heating Degree Days 6    
Growing Degree Days 10 (Base 50)    
Moisture  
Dew Point 45 °F    
Average Humidity 56    
Maximum Humidity 87    
Minimum Humidity 25    
Precipitation  
Precipitation 0.01 in 0.08 in - ()
Sea Level Pressure  
Sea Level Pressure 29.77 in    
Wind  
Wind Speed 4 mph ()    
Max Wind Speed 13 mph    
Max Gust Speed -    
Visibility 9.1 miles    
Events Rain    
T = Trace of Precipitation, MM = Missing Value Source: Averaged Metar Reports

Daily Weather History Graph

Daily Weather History Graph

Search for Another Location

Airport or City:

Trip Planner

Search our weather history database for the weather conditions in past years. The results will help you decide how hot, cold, wet, or windy it might be!

Date:

Astronomy

Apr. 30, 2014 Rise Set
Actual Time 5:34 AM CEST 8:07 PM CEST
Civil Twilight 4:58 AM CEST 8:43 PM CEST
Nautical Twilight 4:13 AM CEST 9:28 PM CEST
Astronomical Twilight 3:21 AM CEST 10:21 PM CEST
Moon 6:20 AM CEST (4/30) 9:33 PM CEST (4/30)
Length of Visible Light 15h 44m
Length of Day
14h 33m
New Moon, 2% of the Moon is Illuminated
Apr 30
New Moon
May 7
First Quarter
May 14
Full
May 21
Last Quarter
May 28
New

Hourly Weather History & Observations

Time (CEST) Temp. Dew Point Humidity Pressure Visibility Wind Dir Wind Speed Gust Speed Precip Events Conditions
12:00 AM 57 °F 46 °F 57% 29.81 in 12 mi NNE 2.2 mph - -   Partly Cloudy
12:00 AM 57.2 °F 46.4 °F 67% 29.80 in - Calm Calm - N/A   Clear
12:30 AM 57.2 °F 46.4 °F 67% 29.80 in - NNE 2.3 mph - N/A   Clear
1:00 AM 56 °F 46 °F 59% 29.81 in 12 mi North 2.2 mph - -   Scattered Clouds
1:00 AM 55.4 °F 46.4 °F 72% 29.80 in - Variable 1.2 mph - N/A   Clear
1:30 AM 53.6 °F 46.4 °F 77% 29.80 in - NW 5.8 mph - N/A   Clear
2:00 AM 53 °F 45 °F 67% 29.81 in 12 mi NW 6.7 mph - -  
2:00 AM 51.8 °F 46.4 °F 82% 29.80 in - NW 4.6 mph - N/A   Clear
2:30 AM 53.6 °F 46.4 °F 77% 29.80 in - NW 10.4 mph - N/A   Clear
3:00 AM 51 °F 45 °F 73% 29.81 in 12 mi NW 6.7 mph - -  
3:00 AM 51.8 °F 44.6 °F 76% 29.80 in - NNW 6.9 mph - N/A   Clear
3:30 AM 51.8 °F 44.6 °F 76% 29.77 in - North 4.6 mph - N/A   Clear
4:00 AM 50 °F 44 °F 74% 29.80 in 12 mi WNW 4.5 mph - -  
4:00 AM 50.0 °F 44.6 °F 82% 29.77 in - NNW 3.5 mph - N/A   Clear
4:30 AM 50.0 °F 44.6 °F 82% 29.77 in - NW 3.5 mph - N/A   Clear
5:00 AM 49 °F 44 °F 76% 29.80 in 12 mi North 2.2 mph - -  
5:00 AM 50.0 °F 44.6 °F 82% 29.77 in - Variable 2.3 mph - N/A   Clear
5:30 AM 48.2 °F 44.6 °F 87% 29.77 in - NW 4.6 mph - N/A   Clear
6:00 AM 49 °F 44 °F 76% 29.80 in 9 mi NW 6.7 mph - -   Scattered Clouds
6:00 AM 48.2 °F 44.6 °F 87% 29.77 in - WNW 6.9 mph - N/A   Clear
6:30 AM 50.0 °F 44.6 °F 82% 29.77 in - Variable 1.2 mph - N/A   Clear
7:00 AM 51 °F 45 °F 72% 29.80 in 9 mi NW 4.5 mph - -   Scattered Clouds
7:00 AM 50.0 °F 44.6 °F 82% 29.77 in - WNW 4.6 mph - N/A   Clear
7:30 AM 51.8 °F 46.4 °F 82% 29.80 in - Variable 2.3 mph - N/A   Clear
8:00 AM 57 °F 46 °F 57% 29.80 in 9 mi East 2.2 mph - -   Scattered Clouds
8:00 AM 55.4 °F 46.4 °F 72% 29.80 in - Variable 2.3 mph - N/A   Clear
8:30 AM 59.0 °F 46.4 °F 63% 29.80 in - Variable 1.2 mph - N/A   Clear
9:00 AM 59 °F 46 °F 53% 29.80 in 12 mi SE 2.2 mph - -   Scattered Clouds
9:00 AM 59.0 °F 48.2 °F 67% 29.80 in 6.2 mi SSE 3.5 mph - N/A   Partly Cloudy
9:30 AM 60.8 °F 48.2 °F 63% 29.80 in 6.2 mi Variable 2.3 mph - N/A   Partly Cloudy
10:00 AM 63 °F 48 °F 47% 29.79 in 12 mi SSE 2.2 mph - -   Scattered Clouds
10:00 AM 62.6 °F 48.2 °F 59% 29.80 in 6.2 mi Variable 1.2 mph - N/A   Partly Cloudy
10:30 AM 66.2 °F 50.0 °F 56% 29.80 in 6.2 mi Variable 2.3 mph - N/A   Partly Cloudy
11:00 AM 67 °F 46 °F 36% 29.78 in 16 mi East 6.7 mph - -   Scattered Clouds
11:00 AM 66.2 °F 48.2 °F 52% 29.80 in 6.2 mi Variable 3.5 mph - N/A   Partly Cloudy
11:30 AM 68.0 °F 46.4 °F 46% 29.80 in - East 6.9 mph - N/A   Clear
12:00 PM 69 °F 45 °F 30% 29.77 in 22 mi East 11.2 mph - -   Partly Cloudy
12:00 PM 68.0 °F 46.4 °F 46% 29.77 in - ESE 10.4 mph - N/A   Clear
12:30 PM 66.2 °F 46.4 °F 49% 29.77 in 6.2 mi ENE 9.2 mph - N/A   Partly Cloudy
1:00 PM 68 °F 42 °F 27% 29.77 in 22 mi ENE 6.7 mph - -   Partly Cloudy
1:00 PM 68.0 °F 44.6 °F 43% 29.77 in 6.2 mi East 8.1 mph - N/A   Partly Cloudy
1:30 PM 69.8 °F 44.6 °F 40% 29.77 in - ENE 8.1 mph - N/A   Clear
2:00 PM 69 °F 42 °F 27% 29.75 in 22 mi ESE 6.7 mph - -   Partly Cloudy
2:00 PM 69.8 °F 44.6 °F 40% 29.77 in - Variable 2.3 mph - N/A   Clear
2:30 PM 68.0 °F 42.8 °F 40% 29.77 in - Variable 6.9 mph - N/A   Clear
3:00 PM 70 °F 43 °F 26% 29.74 in 25 mi ENE 8.9 mph - -   Mostly Cloudy
3:00 PM 69.8 °F 44.6 °F 40% 29.77 in - ENE 5.8 mph - N/A   Clear
3:30 PM 68.0 °F 44.6 °F 43% 29.74 in - East 8.1 mph - N/A   Clear
4:00 PM 71 °F 44 °F 26% 29.73 in 25 mi NNE 2.2 mph - - Rain Light Rain Showers
4:00 PM 71.6 °F 44.6 °F 38% 29.74 in 6.2 mi NNE 4.6 mph - N/A Rain Light Rain Showers
4:30 PM 68.0 °F 44.6 °F 43% 29.74 in 6.2 mi NE 4.6 mph - N/A   Partly Cloudy
5:00 PM 70 °F 42 °F 25% 29.72 in 25 mi North 4.5 mph - - Rain Light Rain Showers
5:00 PM 69.8 °F 41.0 °F 35% 29.74 in 6.2 mi ENE 3.5 mph - N/A   Partly Cloudy
5:30 PM 68.0 °F 44.6 °F 43% 29.74 in 6.2 mi ENE 5.8 mph - N/A   Partly Cloudy
6:00 PM 69 °F 45 °F 30% 29.72 in 25 mi ENE 8.9 mph - -   Partly Cloudy
6:00 PM 69.8 °F 42.8 °F 38% 29.74 in 6.2 mi East 6.9 mph - N/A   Partly Cloudy
6:30 PM 68.0 °F 46.4 °F 46% 29.71 in 6.2 mi ENE 12.7 mph - N/A   Partly Cloudy
7:00 PM 65 °F 45 °F 36% 29.72 in 25 mi ENE 6.7 mph - -   Scattered Clouds
7:00 PM 66.2 °F 46.4 °F 49% 29.71 in 6.2 mi ENE 8.1 mph - N/A   Partly Cloudy
7:30 PM 64.4 °F 44.6 °F 49% 29.74 in - ENE 8.1 mph - N/A   Clear
8:00 PM 64 °F 43 °F 35% 29.73 in 25 mi NE 8.9 mph - -   Partly Cloudy
8:00 PM 64.4 °F 44.6 °F 49% 29.74 in - NE 8.1 mph - N/A   Clear
8:30 PM 62.6 °F 44.6 °F 52% 29.74 in - NE 8.1 mph - N/A   Clear
9:00 PM 61 °F 43 °F 41% 29.76 in 25 mi NNE 4.5 mph - -   Scattered Clouds
9:00 PM 60.8 °F 44.6 °F 55% 29.74 in - NE 4.6 mph - N/A   Clear
9:30 PM 57.2 °F 42.8 °F 59% 29.77 in - ENE 5.8 mph - N/A   Clear
10:00 PM 58 °F 43 °F 46% 29.78 in 22 mi NE 4.5 mph - -   Scattered Clouds
10:00 PM 57.2 °F 44.6 °F 63% 29.77 in - NE 3.5 mph - N/A   Clear
10:30 PM 55.4 °F 44.6 °F 67% 29.77 in - ENE 5.8 mph - N/A   Clear
11:00 PM 58 °F 42 °F 45% 29.80 in 19 mi NE 6.7 mph - -   Mostly Cloudy
11:00 PM 57.2 °F 44.6 °F 63% 29.80 in - NE 5.8 mph - N/A   Clear
11:30 PM 57.2 °F 42.8 °F 59% 29.80 in - NNE 6.9 mph - N/A   Clear